sat.trackr.live / text

‹ back to catalog

STARLINK-5402

NORAD 54869 · 2022-177BB

PAYLOAD ACTIVE UNKNOWN

§ Identity

Operator
Country
US
Launch date
2022-12-28
Launch site
AFETR
Launch vehicle
Mass (kg)
RCS (m²)

Purposes: comms

External: N2YO · Heavens-Above · Gunter

§ Orbital elements

Epoch: 2026-09-20T22:07:19.876512Z

Period
94.27 min
Inclination
43.0021°
Eccentricity
0.0001318
Mean motion
15.27583580 rev/d
Perigee alt
482.1 km
Apogee alt
483.9 km
Semi-major
6,861.2 km
B*
3.6147e-5
RAAN
99.4535°
Arg perigee
257.4854°
Mean anomaly
102.5850°
Rev number
20,694

§ Raw data

STARLINK-54021 54869U 22177BB  26263.92175783  .00000733  00000+0  36147-4 0  99992 54869  43.0021  99.4535 0001318 257.4854 102.5850 15.27583580206943

JSON: /api/v1/satellites/54869 · /tle

For live sub-satellite position, see the globe view (requires WebGL).

§ Visibility from observer

Set your observer location to see the next 7 days of passes ≥ 10°. The values pass through the URL so the page stays shareable.

No JS? Fill the form by hand. The geolocation button needs JavaScript.